Find Starlink 37343

NORAD ID: 69159 Int'l Des: 2026-111 Owner: SPXS Country: US Constellation: starlink operational
LEOCIRCULAR

Current View

Loading 3D Globe...

About Starlink 37343

Starlink 37343 (NORAD 69159) is a starlink constellation satellite (v2 mini) launched May 21, 2026 by SPXS of US. It operates in LEO, CIRCULAR orbit with a mass of 575.00 kg.

Upcoming Passes

Passes for default location (London). Set your location on the main map for personalized predictions.

Altitude History

Loading altitude history...

Two-Line Element Set

1 69159U 26111M 26235.59690403 .00017021 00000-0 51351-3 0 9994
2 69159 53.1569 196.2783 0002166 86.4727 273.6523 15.34413487 14616
Epoch: Aug 23, 2026 • Age: 11 hours

Current Status

Altitude 482.6 km
Apogee / Perigee N/A
Velocity 7.62 km/s
Sub-Earth Point -53.29°S, 121.03°E
Launch Date May 21, 2026
Age 0.2 years
Type internet

Technical Details

Classification Payload
Mass 575.00 kg
Dry Mass 530.00 kg
Total Mass 575.00 kg
Length 0.30 m
Diameter 4.10 m
Span 29.00 m
Shape Box + pan
Manufacturer SPXS
Bus Type Starlink V2MO
Phase Status In Orbit
Owner/State SPXS/US

Most Searched